Regional Weather Roundup
Issued by NWS

Home | Current Version | Previous Version | Graphics & Text | Print | Product List | Glossary Off
Versions: 1 2 3 4 5 6 7 8 9 10 11 12 13 14 15 16 17 18 19 20 21 22 23 24 25 26 27 28 29 30 31 32 33 34 35 36 37 38 39 40 41 42 43 44 45 46 47 48 49 50

000
ASUS43 KTOP 270208
RWRKS

WEATHER ROUNDUP FOR KANSAS
NATIONAL WEATHER SERVICE GOODLAND KS
900 PM CDT FRI MAY 26 2017

NOTE:  "FAIR" INDICATES FEW OR NO CLOUDS BELOW 12,000 FEET WITH NO
SIGNIFICANT WEATHER AND/OR OBSTRUCTIONS TO VISIBILITY.

KSZ001>006-013>018-027>032-041>047-270300-
NORTHWEST KANSAS

CITY           SKY/WX    TMP DP  RH WIND       PRES   REMARKS
GOODLAND       CLOUDY    65  54  67 E25G35    29.77F THUNDER
HAYS           CLEAR     68  59  73 E8        29.84R
HILL CITY      CLEAR     67  55  65 E5        29.84R
RUSSELL        PTCLDY    68  60  75 E8        29.81S
$$

KSZ061>065-074>080-084>089-270300-
SOUTHWEST KANSAS

CITY           SKY/WX    TMP DP  RH WIND       PRES   REMARKS
DODGE CITY     CLEAR     70  59  68 E7        29.83S
ELKHART          N/A     71  47  42 MISG        N/A
GARDEN CITY    CLEAR     72  56  57 E13       29.82S
GREAT BEND     CLEAR     73  59  61 E6        29.83R
LIBERAL        CLEAR     74  55  51 E10       29.82S
PRATT          CLEAR     73  57  58 E3        29.83R
$$

KSZ066>073-081>083-090>101-270300-
SOUTHEAST KANSAS

CITY           SKY/WX    TMP DP  RH WIND       PRES   REMARKS
CHANUTE        CLEAR     77  64  64 NE6       29.79R
COFFEYVILLE    CLEAR     78  68  71 NE7       29.77R
HUTCHINSON     CLEAR     75  61  61 NE5       29.80R
MEDICINE LODGE   N/A     78  59  51 E6        29.80R
NEWTON         CLEAR     75  62  64 VRB3      29.82R
PARSONS        CLEAR     73  66  78 CALM      29.80R
WICHITA INTL   PTCLDY    77  62  59 E8        29.79R
WICHITA JABRA  CLEAR     74  63  68 E5        29.80R
WINFIELD       CLEAR     79  62  56 E5        29.80R
$$

KSZ007>012-019>026-033>040-048>060-102>105-270300-
NORTHEAST KANSAS

CITY           SKY/WX    TMP DP  RH WIND       PRES   REMARKS
CONCORDIA      CLEAR     71  56  58 E3        29.82R
EMPORIA        CLEAR     76  63  64 E6        29.80R
LAWRENCE       CLEAR     73  69  87 NE5       29.80R
MANHATTAN      CLEAR     71  64  78 CALM      29.80R
MARYSVILLE     CLEAR     73  54  49 NE5       29.83R
OLATHE IND     PTCLDY    78  64  61 E3        29.81R
OLATHE EXE     CLEAR     77  64  64 E5        29.81R
SALINA         CLEAR     80  58  46 NE5       29.81R
TOPEKA BILLARD CLEAR     76  66  71 CALM      29.79R
TOPEKA FORBES  CLEAR     75  66  73 CALM      29.80R
$$



USA.gov is the U.S. government's official web portal to all federal, state and local government web resources and services.